Time,TemperatureF,DewpointF,PressureIn,WindDirection,WindDirectionDegrees,WindSpeedMPH,WindSpeedGustMPH,Humidity,HourlyPrecipIn,Conditions,Clouds,dailyrainin,SoftwareType,DateUTC
2013-12-02 00:00:00,30.6,29.3,30.22,ENE,74,3.0,4.0,95,0.00,,,0.00,Wunderground v.1.15,2013-12-02 05:00:00,
2013-12-02 00:05:00,30.6,29.3,30.21,ENE,75,3.0,4.0,95,0.00,,,0.00,Wunderground v.1.15,2013-12-02 05:05:00,
2013-12-02 00:10:00,30.6,29.3,30.21,ENE,68,4.0,4.0,95,0.00,,,0.00,Wunderground v.1.15,2013-12-02 05:10:00,
2013-12-02 00:15:00,30.6,29.3,30.21,East,93,3.0,4.0,95,0.00,,,0.00,Wunderground v.1.15,2013-12-02 05:15:00,
2013-12-02 00:20:00,30.6,29.3,30.21,East,91,3.0,3.0,95,0.00,,,0.00,Wunderground v.1.15,2013-12-02 05:20:00,
2013-12-02 00:25:00,30.6,29.3,30.20,ENE,61,4.0,5.0,95,0.00,,,0.00,Wunderground v.1.15,2013-12-02 05:25:00,
2013-12-02 00:30:00,30.6,29.3,30.20,ENE,77,4.0,4.0,95,0.00,,,0.00,Wunderground v.1.15,2013-12-02 05:30:00,
2013-12-02 00:35:00,30.6,29.3,30.20,East,88,3.0,4.0,95,0.00,,,0.00,Wunderground v.1.15,2013-12-02 05:35:00,
2013-12-02 00:40:00,30.5,29.2,30.20,ENE,73,3.0,3.0,95,0.00,,,0.00,Wunderground v.1.15,2013-12-02 05:40:00,
2013-12-02 00:45:00,30.6,29.3,30.20,East,89,3.0,3.0,95,0.00,,,0.00,Wunderground v.1.15,2013-12-02 05:45:00,
2013-12-02 00:50:00,30.6,29.3,30.21,ENE,68,2.0,2.0,95,0.00,,,0.00,Wunderground v.1.15,2013-12-02 05:50:00,
2013-12-02 00:55:00,30.6,29.3,30.21,NE,46,2.0,2.0,95,0.00,,,0.00,Wunderground v.1.15,2013-12-02 05:55:00,
2013-12-02 01:00:00,30.6,29.3,30.21,NE,40,2.0,3.0,95,0.00,,,0.00,Wunderground v.1.15,2013-12-02 06:00:00,
2013-12-02 01:05:00,30.6,29.3,30.21,ENE,73,2.0,3.0,95,0.00,,,0.00,Wunderground v.1.15,2013-12-02 06:05:00,
2013-12-02 01:10:00,30.7,29.4,30.21,ENE,72,2.0,2.0,95,0.00,,,0.00,Wunderground v.1.15,2013-12-02 06:10:00,
2013-12-02 01:15:00,30.6,29.3,30.21,NNE,33,2.0,3.0,95,0.00,,,0.00,Wunderground v.1.15,2013-12-02 06:15:00,
2013-12-02 01:20:00,30.5,29.2,30.20,ENE,59,3.0,3.0,95,0.00,,,0.00,Wunderground v.1.15,2013-12-02 06:20:00,
2013-12-02 01:25:00,30.5,29.2,30.20,NE,36,3.0,3.0,95,0.00,,,0.00,Wunderground v.1.15,2013-12-02 06:25:00,
2013-12-02 01:35:00,30.6,29.3,30.20,ENE,59,3.0,3.0,95,0.00,,,0.00,Wunderground v.1.15,2013-12-02 06:35:00,
2013-12-02 01:40:00,30.6,29.3,30.20,NE,55,2.0,4.0,95,0.00,,,0.00,Wunderground v.1.15,2013-12-02 06:40:00,
2013-12-02 01:45:00,30.7,29.4,30.20,ENE,76,3.0,4.0,95,0.00,,,0.00,Wunderground v.1.15,2013-12-02 06:45:00,
2013-12-02 01:50:00,30.8,29.5,30.20,ENE,74,3.0,3.0,95,0.00,,,0.00,Wunderground v.1.15,2013-12-02 06:50:00,
2013-12-02 01:55:00,30.9,29.6,30.20,East,82,2.0,3.0,95,0.00,,,0.00,Wunderground v.1.15,2013-12-02 06:55:00,
2013-12-02 02:00:00,30.9,29.6,30.20,ENE,61,3.0,3.0,95,0.00,,,0.00,Wunderground v.1.15,2013-12-02 07:00:00,
2013-12-02 02:05:00,30.9,29.6,30.20,NE,55,3.0,3.0,95,0.00,,,0.00,Wunderground v.1.15,2013-12-02 07:05:00,
2013-12-02 02:15:00,31.0,29.7,30.20,NE,56,2.0,3.0,95,0.00,,,0.00,Wunderground v.1.15,2013-12-02 07:15:00,
2013-12-02 02:25:00,31.1,29.8,30.19,ENE,74,3.0,3.0,95,0.00,,,0.00,Wunderground v.1.15,2013-12-02 07:25:00,
2013-12-02 02:30:00,31.2,29.9,30.19,East,81,3.0,3.0,95,0.00,,,0.00,Wunderground v.1.15,2013-12-02 07:30:00,
2013-12-02 02:35:00,31.2,29.9,30.19,ENE,71,3.0,3.0,95,0.00,,,0.00,Wunderground v.1.15,2013-12-02 07:35:00,
2013-12-02 02:40:00,31.2,29.9,30.19,East,81,3.0,5.0,95,0.00,,,0.00,Wunderground v.1.15,2013-12-02 07:40:00,
2013-12-02 02:45:00,31.3,30.0,30.19,East,84,3.0,5.0,95,0.00,,,0.00,Wunderground v.1.15,2013-12-02 07:45:00,
2013-12-02 02:55:00,31.2,29.9,30.19,East,84,3.0,3.0,95,0.00,,,0.00,Wunderground v.1.15,2013-12-02 07:55:00,
2013-12-02 03:00:00,31.3,30.0,30.18,East,84,3.0,3.0,95,0.00,,,0.00,Wunderground v.1.15,2013-12-02 08:00:00,
2013-12-02 03:10:00,31.4,30.4,30.18,East,83,3.0,3.0,96,0.00,,,0.00,Wunderground v.1.15,2013-12-02 08:10:00,
2013-12-02 03:15:00,31.4,30.4,30.18,ESE,108,3.0,3.0,96,0.00,,,0.00,Wunderground v.1.15,2013-12-02 08:15:00,
2013-12-02 03:20:00,31.4,30.4,30.18,East,90,3.0,3.0,96,0.00,,,0.00,Wunderground v.1.15,2013-12-02 08:20:00,
2013-12-02 03:25:00,31.4,30.4,30.18,East,87,3.0,3.0,96,0.00,,,0.00,Wunderground v.1.15,2013-12-02 08:25:00,
2013-12-02 03:30:00,31.5,30.5,30.18,NE,56,3.0,6.0,96,0.00,,,0.00,Wunderground v.1.15,2013-12-02 08:30:00,
2013-12-02 03:40:00,31.6,30.6,30.18,East,90,3.0,4.0,96,0.00,,,0.00,Wunderground v.1.15,2013-12-02 08:40:00,
2013-12-02 03:45:00,31.6,30.6,30.18,East,84,3.0,4.0,96,0.00,,,0.00,Wunderground v.1.15,2013-12-02 08:45:00,
2013-12-02 03:50:00,31.7,30.4,30.17,ENE,69,3.0,3.0,95,0.00,,,0.00,Wunderground v.1.15,2013-12-02 08:50:00,
2013-12-02 03:55:00,31.7,30.4,30.17,ENE,61,3.0,5.0,95,0.00,,,0.00,Wunderground v.1.15,2013-12-02 08:55:00,
2013-12-02 04:00:00,31.7,30.4,30.17,ESE,107,4.0,4.0,95,0.00,,,0.00,Wunderground v.1.15,2013-12-02 09:00:00,
2013-12-02 04:05:00,31.7,30.4,30.17,East,98,4.0,4.0,95,0.00,,,0.00,Wunderground v.1.15,2013-12-02 09:05:00,
2013-12-02 04:10:00,31.7,30.4,30.17,East,80,4.0,4.0,95,0.00,,,0.00,Wunderground v.1.15,2013-12-02 09:10:00,
2013-12-02 04:15:00,31.7,30.4,30.17,ENE,71,4.0,4.0,95,0.00,,,0.00,Wunderground v.1.15,2013-12-02 09:15:00,
2013-12-02 04:20:00,31.7,30.4,30.17,ENE,75,3.0,6.0,95,0.00,,,0.00,Wunderground v.1.15,2013-12-02 09:20:00,
2013-12-02 04:30:00,31.7,30.4,30.17,ENE,75,3.0,3.0,95,0.00,,,0.00,Wunderground v.1.15,2013-12-02 09:30:00,
2013-12-02 04:35:00,31.7,30.4,30.17,East,84,3.0,3.0,95,0.00,,,0.00,Wunderground v.1.15,2013-12-02 09:35:00,
2013-12-02 04:40:00,31.7,30.4,30.17,East,81,3.0,3.0,95,0.00,,,0.00,Wunderground v.1.15,2013-12-02 09:40:00,
2013-12-02 04:45:00,31.7,30.4,30.16,East,84,3.0,5.0,95,0.00,,,0.00,Wunderground v.1.15,2013-12-02 09:45:00,
2013-12-02 04:55:00,31.7,30.4,30.16,ENE,74,3.0,3.0,95,0.00,,,0.00,Wunderground v.1.15,2013-12-02 09:55:00,
2013-12-02 05:00:00,31.7,30.4,30.16,East,100,3.0,4.0,95,0.00,,,0.00,Wunderground v.1.15,2013-12-02 10:00:00,
2013-12-02 05:05:00,31.8,30.8,30.16,ENE,57,3.0,5.0,96,0.00,,,0.00,Wunderground v.1.15,2013-12-02 10:05:00,
2013-12-02 05:10:00,31.8,30.8,30.16,ENE,76,3.0,3.0,96,0.00,,,0.00,Wunderground v.1.15,2013-12-02 10:10:00,
2013-12-02 05:15:00,31.9,30.9,30.16,East,83,3.0,3.0,96,0.00,,,0.00,Wunderground v.1.15,2013-12-02 10:15:00,
2013-12-02 05:20:00,31.9,30.9,30.16,ENE,74,2.0,2.0,96,0.00,,,0.00,Wunderground v.1.15,2013-12-02 10:20:00,
2013-12-02 05:25:00,31.9,30.9,30.16,ENE,64,3.0,3.0,96,0.00,,,0.00,Wunderground v.1.15,2013-12-02 10:25:00,
2013-12-02 05:30:00,31.9,30.9,30.16,East,85,2.0,2.0,96,0.00,,,0.00,Wunderground v.1.15,2013-12-02 10:30:00,
2013-12-02 05:35:00,31.9,30.9,30.17,ENE,69,2.0,2.0,96,0.00,,,0.00,Wunderground v.1.15,2013-12-02 10:35:00,
2013-12-02 05:40:00,31.9,30.9,30.17,ENE,71,1.0,1.0,96,0.00,,,0.00,Wunderground v.1.15,2013-12-02 10:40:00,
2013-12-02 05:45:00,32.0,31.0,30.17,East,79,1.0,2.0,96,0.00,,,0.00,Wunderground v.1.15,2013-12-02 10:45:00,
2013-12-02 05:50:00,32.1,31.1,30.16,ENE,74,2.0,4.0,96,0.00,,,0.00,Wunderground v.1.15,2013-12-02 10:50:00,
2013-12-02 05:55:00,32.1,31.1,30.16,East,88,3.0,4.0,96,0.00,,,0.00,Wunderground v.1.15,2013-12-02 10:55:00,
2013-12-02 06:00:00,32.2,31.2,30.15,ENE,61,3.0,4.0,96,0.00,,,0.00,Wunderground v.1.15,2013-12-02 11:00:00,
2013-12-02 06:10:00,32.3,31.3,30.16,ESE,111,3.0,3.0,96,0.00,,,0.00,Wunderground v.1.15,2013-12-02 11:10:00,
2013-12-02 06:15:00,32.4,31.4,30.16,ESE,108,3.0,3.0,96,0.00,,,0.00,Wunderground v.1.15,2013-12-02 11:15:00,
2013-12-02 06:20:00,32.4,31.4,30.16,ENE,71,2.0,2.0,96,0.00,,,0.00,Wunderground v.1.15,2013-12-02 11:20:00,
2013-12-02 06:25:00,32.6,31.6,30.16,NNE,33,2.0,2.0,96,0.00,,,0.00,Wunderground v.1.15,2013-12-02 11:25:00,
2013-12-02 06:30:00,32.6,31.6,30.16,ENE,61,2.0,3.0,96,0.00,,,0.00,Wunderground v.1.15,2013-12-02 11:30:00,
2013-12-02 06:35:00,32.6,31.6,30.16,ENE,75,2.0,3.0,96,0.00,,,0.00,Wunderground v.1.15,2013-12-02 11:35:00,
2013-12-02 06:40:00,32.7,31.7,30.16,ENE,70,3.0,3.0,96,0.00,,,0.00,Wunderground v.1.15,2013-12-02 11:40:00,
2013-12-02 06:45:00,32.7,31.7,30.16,East,89,3.0,3.0,96,0.00,,,0.00,Wunderground v.1.15,2013-12-02 11:45:00,
2013-12-02 06:55:00,32.8,31.8,30.16,ENE,74,3.0,4.0,96,0.00,,,0.00,Wunderground v.1.15,2013-12-02 11:55:00,
2013-12-02 07:00:00,32.8,31.8,30.15,East,83,3.0,3.0,96,0.00,,,0.00,Wunderground v.1.15,2013-12-02 12:00:00,
2013-12-02 07:05:00,32.8,31.8,30.15,East,98,3.0,3.0,96,0.00,,,0.00,Wunderground v.1.15,2013-12-02 12:05:00,
2013-12-02 07:10:00,32.8,31.8,30.15,East,101,3.0,3.0,96,0.00,,,0.00,Wunderground v.1.15,2013-12-02 12:10:00,
2013-12-02 07:15:00,32.9,31.9,30.15,East,80,3.0,3.0,96,0.00,,,0.00,Wunderground v.1.15,2013-12-02 12:15:00,
2013-12-02 07:20:00,32.9,31.9,30.15,ENE,66,3.0,3.0,96,0.00,,,0.00,Wunderground v.1.15,2013-12-02 12:20:00,
2013-12-02 07:25:00,32.9,31.9,30.15,East,83,3.0,3.0,96,0.00,,,0.00,Wunderground v.1.15,2013-12-02 12:25:00,
2013-12-02 07:30:00,32.9,31.9,30.15,East,80,3.0,3.0,96,0.00,,,0.00,Wunderground v.1.15,2013-12-02 12:30:00,
2013-12-02 07:35:00,32.9,31.9,30.15,East,92,3.0,4.0,96,0.00,,,0.00,Wunderground v.1.15,2013-12-02 12:35:00,
2013-12-02 07:40:00,32.8,31.8,30.14,East,80,4.0,4.0,96,0.00,,,0.00,Wunderground v.1.15,2013-12-02 12:40:00,
2013-12-02 07:45:00,32.8,31.8,30.14,ESE,104,4.0,5.0,96,0.00,,,0.00,Wunderground v.1.15,2013-12-02 12:45:00,
2013-12-02 07:55:00,32.8,31.8,30.14,ESE,113,4.0,5.0,96,0.00,,,0.00,Wunderground v.1.15,2013-12-02 12:55:00,
2013-12-02 08:00:00,32.7,31.7,30.14,ENE,61,5.0,5.0,96,0.00,,,0.00,Wunderground v.1.15,2013-12-02 13:00:00,
2013-12-02 08:05:00,32.7,31.7,30.15,ENE,71,5.0,5.0,96,0.00,,,0.00,Wunderground v.1.15,2013-12-02 13:05:00,
2013-12-02 08:15:00,32.7,31.7,30.15,ESE,105,3.0,5.0,96,0.00,,,0.00,Wunderground v.1.15,2013-12-02 13:15:00,
2013-12-02 08:20:00,32.7,31.7,30.15,ENE,63,3.0,4.0,96,0.00,,,0.00,Wunderground v.1.15,2013-12-02 13:20:00,
2013-12-02 08:25:00,32.8,31.8,30.15,East,94,3.0,4.0,96,0.00,,,0.00,Wunderground v.1.15,2013-12-02 13:25:00,
2013-12-02 08:30:00,32.8,31.8,30.15,East,81,3.0,5.0,96,0.00,,,0.00,Wunderground v.1.15,2013-12-02 13:30:00,
2013-12-02 08:35:00,32.8,31.8,30.15,ENE,76,3.0,5.0,96,0.00,,,0.00,Wunderground v.1.15,2013-12-02 13:35:00,
2013-12-02 08:40:00,32.7,31.7,30.15,ENE,70,3.0,5.0,96,0.00,,,0.00,Wunderground v.1.15,2013-12-02 13:40:00,
2013-12-02 08:45:00,32.7,31.7,30.15,East,81,4.0,5.0,96,0.00,,,0.00,Wunderground v.1.15,2013-12-02 13:45:00,
2013-12-02 08:50:00,32.8,31.8,30.15,ENE,78,4.0,4.0,96,0.00,,,0.00,Wunderground v.1.15,2013-12-02 13:50:00,
2013-12-02 08:55:00,32.7,31.7,30.14,East,88,3.0,4.0,96,0.00,,,0.00,Wunderground v.1.15,2013-12-02 13:55:00,
2013-12-02 09:00:00,32.8,31.8,30.14,ENE,69,4.0,4.0,96,0.00,,,0.00,Wunderground v.1.15,2013-12-02 14:00:00,
2013-12-02 09:05:00,32.8,31.8,30.14,East,92,4.0,4.0,96,0.00,,,0.00,Wunderground v.1.15,2013-12-02 14:05:00,
2013-12-02 09:10:00,32.8,31.8,30.14,East,80,4.0,4.0,96,0.00,,,0.00,Wunderground v.1.15,2013-12-02 14:10:00,
2013-12-02 09:20:00,32.8,31.8,30.14,NE,43,4.0,4.0,96,0.00,,,0.00,Wunderground v.1.15,2013-12-02 14:20:00,
2013-12-02 09:25:00,32.8,31.8,30.14,ENE,71,4.0,4.0,96,0.00,,,0.00,Wunderground v.1.15,2013-12-02 14:25:00,
2013-12-02 09:35:00,32.8,31.8,30.14,ENE,63,4.0,5.0,96,0.00,,,0.00,Wunderground v.1.15,2013-12-02 14:35:00,
2013-12-02 09:40:00,32.9,31.9,30.14,East,80,3.0,3.0,96,0.00,,,0.00,Wunderground v.1.15,2013-12-02 14:40:00,
2013-12-02 09:45:00,32.9,31.9,30.14,East,82,3.0,3.0,96,0.00,,,0.00,Wunderground v.1.15,2013-12-02 14:45:00,
2013-12-02 09:50:00,32.9,31.9,30.14,ENE,67,2.0,4.0,96,0.00,,,0.00,Wunderground v.1.15,2013-12-02 14:50:00,
2013-12-02 09:55:00,32.9,31.9,30.14,ENE,57,3.0,4.0,96,0.00,,,0.00,Wunderground v.1.15,2013-12-02 14:55:00,
2013-12-02 10:00:00,32.9,31.9,30.14,East,84,3.0,3.0,96,0.00,,,0.00,Wunderground v.1.15,2013-12-02 15:00:00,
2013-12-02 10:05:00,33.0,32.0,30.14,East,82,3.0,3.0,96,0.00,,,0.00,Wunderground v.1.15,2013-12-02 15:05:00,
2013-12-02 10:10:00,33.0,32.0,30.14,ESE,107,3.0,3.0,96,0.00,,,0.00,Wunderground v.1.15,2013-12-02 15:10:00,
2013-12-02 10:15:00,33.1,32.1,30.14,ENE,64,3.0,3.0,96,0.00,,,0.00,Wunderground v.1.15,2013-12-02 15:15:00,
2013-12-02 10:20:00,33.1,32.1,30.14,ENE,68,2.0,2.0,96,0.00,,,0.00,Wunderground v.1.15,2013-12-02 15:20:00,
2013-12-02 10:25:00,33.1,32.1,30.14,ENE,67,2.0,2.0,96,0.00,,,0.00,Wunderground v.1.15,2013-12-02 15:25:00,
2013-12-02 10:30:00,33.2,32.2,30.14,ENE,70,2.0,2.0,96,0.00,,,0.00,Wunderground v.1.15,2013-12-02 15:30:00,
2013-12-02 10:35:00,33.3,32.3,30.14,NE,52,2.0,6.0,96,0.00,,,0.00,Wunderground v.1.15,2013-12-02 15:35:00,
2013-12-02 10:45:00,33.3,32.3,30.13,ENE,66,2.0,2.0,96,0.00,,,0.00,Wunderground v.1.15,2013-12-02 15:45:00,
2013-12-02 10:50:00,33.3,32.3,30.13,ENE,75,2.0,2.0,96,0.00,,,0.00,Wunderground v.1.15,2013-12-02 15:50:00,
2013-12-02 11:00:00,33.4,32.4,30.13,ENE,67,1.0,3.0,96,0.00,,,0.00,Wunderground v.1.15,2013-12-02 16:00:00,
2013-12-02 11:05:00,33.4,32.4,30.13,ENE,76,2.0,3.0,96,0.00,,,0.00,Wunderground v.1.15,2013-12-02 16:05:00,
2013-12-02 11:10:00,33.5,32.5,30.13,ENE,69,2.0,3.0,96,0.00,,,0.00,Wunderground v.1.15,2013-12-02 16:10:00,
2013-12-02 11:15:00,33.6,32.6,30.12,East,99,2.0,3.0,96,0.00,,,0.01,Wunderground v.1.15,2013-12-02 16:15:00,
2013-12-02 11:20:00,33.7,32.7,30.12,ESE,109,3.0,4.0,96,0.00,,,0.01,Wunderground v.1.15,2013-12-02 16:20:00,
2013-12-02 11:25:00,33.7,32.7,30.12,ENE,67,3.0,4.0,96,0.00,,,0.01,Wunderground v.1.15,2013-12-02 16:25:00,
2013-12-02 11:30:00,33.9,32.9,30.12,NE,54,2.0,4.0,96,0.00,,,0.01,Wunderground v.1.15,2013-12-02 16:30:00,
2013-12-02 11:35:00,34.0,33.0,30.12,East,85,2.0,4.0,96,0.00,,,0.02,Wunderground v.1.15,2013-12-02 16:35:00,
2013-12-02 11:40:00,34.1,33.1,30.11,ENE,65,2.0,3.0,96,0.00,,,0.02,Wunderground v.1.15,2013-12-02 16:40:00,
2013-12-02 11:45:00,34.2,33.2,30.11,ENE,69,3.0,3.0,96,0.00,,,0.02,Wunderground v.1.15,2013-12-02 16:45:00,
2013-12-02 11:50:00,34.2,33.2,30.11,East,82,3.0,3.0,96,0.00,,,0.02,Wunderground v.1.15,2013-12-02 16:50:00,
2013-12-02 11:55:00,34.3,33.3,30.11,ENE,67,2.0,3.0,96,0.00,,,0.03,Wunderground v.1.15,2013-12-02 16:55:00,
2013-12-02 12:00:00,34.3,33.3,30.11,ENE,68,3.0,3.0,96,0.00,,,0.03,Wunderground v.1.15,2013-12-02 17:00:00,
2013-12-02 12:05:00,34.3,33.3,30.11,ENE,64,4.0,4.0,96,0.00,,,0.03,Wunderground v.1.15,2013-12-02 17:05:00,
2013-12-02 12:10:00,34.4,33.4,30.11,ENE,70,3.0,3.0,96,0.00,,,0.03,Wunderground v.1.15,2013-12-02 17:10:00,
2013-12-02 12:15:00,34.5,33.5,30.11,ENE,57,2.0,3.0,96,0.00,,,0.03,Wunderground v.1.15,2013-12-02 17:15:00,
2013-12-02 12:20:00,34.4,33.4,30.11,ENE,73,2.0,3.0,96,0.00,,,0.04,Wunderground v.1.15,2013-12-02 17:20:00,
2013-12-02 12:25:00,34.4,33.4,30.11,NE,55,3.0,4.0,96,0.00,,,0.04,Wunderground v.1.15,2013-12-02 17:25:00,
2013-12-02 12:30:00,34.4,33.4,30.10,ENE,74,3.0,3.0,96,0.00,,,0.04,Wunderground v.1.15,2013-12-02 17:30:00,
2013-12-02 12:40:00,34.4,33.4,30.10,ENE,61,3.0,3.0,96,0.00,,,0.04,Wunderground v.1.15,2013-12-02 17:40:00,
2013-12-02 12:45:00,34.4,33.4,30.10,ENE,57,3.0,3.0,96,0.00,,,0.04,Wunderground v.1.15,2013-12-02 17:45:00,
2013-12-02 12:50:00,34.6,33.6,30.10,ENE,63,2.0,2.0,96,0.00,,,0.05,Wunderground v.1.15,2013-12-02 17:50:00,
2013-12-02 12:55:00,34.7,33.7,30.10,ENE,77,2.0,4.0,96,0.00,,,0.05,Wunderground v.1.15,2013-12-02 17:55:00,
2013-12-02 13:00:00,34.7,33.7,30.10,NE,38,3.0,3.0,96,0.00,,,0.05,Wunderground v.1.15,2013-12-02 18:00:00,
2013-12-02 13:05:00,34.7,33.7,30.10,ENE,58,3.0,3.0,96,0.00,,,0.05,Wunderground v.1.15,2013-12-02 18:05:00,
2013-12-02 13:10:00,34.6,33.6,30.10,NE,38,3.0,4.0,96,0.00,,,0.05,Wunderground v.1.15,2013-12-02 18:10:00,
2013-12-02 13:15:00,34.6,33.6,30.09,NNE,26,4.0,4.0,96,0.00,,,0.05,Wunderground v.1.15,2013-12-02 18:15:00,
2013-12-02 13:20:00,34.5,33.5,30.10,ENE,57,4.0,4.0,96,0.00,,,0.05,Wunderground v.1.15,2013-12-02 18:20:00,
2013-12-02 13:25:00,34.6,33.6,30.10,East,82,3.0,5.0,96,0.00,,,0.05,Wunderground v.1.15,2013-12-02 18:25:00,
2013-12-02 13:30:00,34.6,33.6,30.09,ENE,65,4.0,4.0,96,0.00,,,0.05,Wunderground v.1.15,2013-12-02 18:30:00,
2013-12-02 13:35:00,34.7,33.7,30.09,ENE,63,4.0,4.0,96,0.00,,,0.06,Wunderground v.1.15,2013-12-02 18:35:00,
2013-12-02 13:40:00,34.7,33.7,30.09,NE,51,3.0,3.0,96,0.00,,,0.06,Wunderground v.1.15,2013-12-02 18:40:00,
2013-12-02 13:45:00,34.8,33.8,30.09,ENE,61,3.0,3.0,96,0.00,,,0.06,Wunderground v.1.15,2013-12-02 18:45:00,
2013-12-02 13:50:00,34.8,33.8,30.09,East,86,2.0,2.0,96,0.00,,,0.06,Wunderground v.1.15,2013-12-02 18:50:00,
2013-12-02 14:00:00,34.9,33.9,30.08,ENE,65,2.0,2.0,96,0.00,,,0.06,Wunderground v.1.15,2013-12-02 19:00:00,
2013-12-02 14:05:00,34.9,33.9,30.08,East,95,2.0,2.0,96,0.00,,,0.06,Wunderground v.1.15,2013-12-02 19:05:00,
2013-12-02 14:10:00,34.9,33.9,30.09,ESE,103,2.0,2.0,96,0.00,,,0.06,Wunderground v.1.15,2013-12-02 19:10:00,
2013-12-02 14:15:00,34.9,33.9,30.08,East,88,2.0,2.0,96,0.00,,,0.06,Wunderground v.1.15,2013-12-02 19:15:00,
2013-12-02 14:20:00,35.0,34.0,30.08,ENE,74,1.0,3.0,96,0.00,,,0.06,Wunderground v.1.15,2013-12-02 19:20:00,
2013-12-02 14:25:00,35.0,34.0,30.09,ENE,76,2.0,3.0,96,0.00,,,0.06,Wunderground v.1.15,2013-12-02 19:25:00,
2013-12-02 14:30:00,35.0,34.0,30.09,ENE,78,3.0,3.0,96,0.00,,,0.06,Wunderground v.1.15,2013-12-02 19:30:00,
2013-12-02 14:35:00,35.0,34.0,30.09,ENE,78,2.0,3.0,96,0.00,,,0.06,Wunderground v.1.15,2013-12-02 19:35:00,
2013-12-02 14:40:00,35.1,34.1,30.09,ENE,77,1.0,1.0,96,0.00,,,0.06,Wunderground v.1.15,2013-12-02 19:40:00,
2013-12-02 14:45:00,35.1,34.1,30.09,ENE,76,1.0,4.0,96,0.00,,,0.06,Wunderground v.1.15,2013-12-02 19:45:00,
2013-12-02 14:50:00,35.1,34.1,30.08,ENE,78,2.0,4.0,96,0.00,,,0.06,Wunderground v.1.15,2013-12-02 19:50:00,
2013-12-02 14:55:00,35.0,34.0,30.08,ENE,70,3.0,4.0,96,0.00,,,0.07,Wunderground v.1.15,2013-12-02 19:55:00,
2013-12-02 15:00:00,35.0,34.0,30.08,East,100,2.0,2.0,96,0.00,,,0.07,Wunderground v.1.15,2013-12-02 20:00:00,
2013-12-02 15:05:00,35.0,34.0,30.08,ESE,104,2.0,4.0,96,0.00,,,0.07,Wunderground v.1.15,2013-12-02 20:05:00,
2013-12-02 15:10:00,34.8,33.8,30.08,East,82,3.0,4.0,96,0.00,,,0.07,Wunderground v.1.15,2013-12-02 20:10:00,
2013-12-02 15:15:00,34.8,33.8,30.08,East,97,3.0,4.0,96,0.00,,,0.07,Wunderground v.1.15,2013-12-02 20:15:00,
2013-12-02 15:20:00,34.7,33.7,30.09,ESE,109,3.0,3.0,96,0.00,,,0.07,Wunderground v.1.15,2013-12-02 20:20:00,
2013-12-02 15:25:00,34.7,33.7,30.08,East,80,3.0,3.0,96,0.00,,,0.07,Wunderground v.1.15,2013-12-02 20:25:00,
2013-12-02 15:30:00,34.7,33.7,30.08,East,79,2.0,2.0,96,0.00,,,0.07,Wunderground v.1.15,2013-12-02 20:30:00,
2013-12-02 15:35:00,34.7,33.7,30.08,East,84,2.0,4.0,96,0.00,,,0.07,Wunderground v.1.15,2013-12-02 20:35:00,
2013-12-02 15:40:00,34.7,33.7,30.08,East,80,2.0,2.0,96,0.00,,,0.07,Wunderground v.1.15,2013-12-02 20:40:00,
2013-12-02 15:45:00,34.7,33.7,30.08,East,87,2.0,4.0,96,0.00,,,0.07,Wunderground v.1.15,2013-12-02 20:45:00,
2013-12-02 15:50:00,34.6,33.6,30.07,ENE,73,3.0,3.0,96,0.00,,,0.07,Wunderground v.1.15,2013-12-02 20:50:00,
2013-12-02 15:55:00,34.6,33.6,30.07,East,94,3.0,3.0,96,0.00,,,0.07,Wunderground v.1.15,2013-12-02 20:55:00,
2013-12-02 16:00:00,34.6,33.6,30.08,East,87,3.0,3.0,96,0.00,,,0.07,Wunderground v.1.15,2013-12-02 21:00:00,
2013-12-02 16:05:00,34.5,33.5,30.08,ENE,78,2.0,3.0,96,0.00,,,0.07,Wunderground v.1.15,2013-12-02 21:05:00,
2013-12-02 16:10:00,34.5,33.5,30.08,ENE,74,2.0,2.0,96,0.00,,,0.07,Wunderground v.1.15,2013-12-02 21:10:00,
2013-12-02 16:15:00,34.5,33.5,30.08,East,98,2.0,3.0,96,0.00,,,0.07,Wunderground v.1.15,2013-12-02 21:15:00,
2013-12-02 16:20:00,34.4,33.4,30.08,East,86,3.0,3.0,96,0.00,,,0.07,Wunderground v.1.15,2013-12-02 21:20:00,
2013-12-02 16:25:00,34.4,33.4,30.08,East,94,3.0,4.0,96,0.00,,,0.07,Wunderground v.1.15,2013-12-02 21:25:00,
2013-12-02 16:30:00,34.3,33.3,30.08,ESE,119,2.0,2.0,96,0.00,,,0.07,Wunderground v.1.15,2013-12-02 21:30:00,
2013-12-02 16:35:00,34.3,33.3,30.08,East,93,2.0,3.0,96,0.00,,,0.07,Wunderground v.1.15,2013-12-02 21:35:00,
2013-12-02 16:40:00,34.3,33.3,30.08,ESE,116,2.0,2.0,96,0.00,,,0.07,Wunderground v.1.15,2013-12-02 21:40:00,
2013-12-02 16:45:00,34.3,33.3,30.08,East,96,2.0,5.0,96,0.00,,,0.07,Wunderground v.1.15,2013-12-02 21:45:00,
2013-12-02 16:50:00,34.3,33.3,30.08,East,96,3.0,3.0,96,0.00,,,0.07,Wunderground v.1.15,2013-12-02 21:50:00,
2013-12-02 17:00:00,34.2,33.2,30.08,ESE,107,3.0,4.0,96,0.00,,,0.07,Wunderground v.1.15,2013-12-02 22:00:00,
2013-12-02 17:05:00,34.2,33.2,30.08,East,93,2.0,4.0,96,0.00,,,0.07,Wunderground v.1.15,2013-12-02 22:05:00,
2013-12-02 17:10:00,34.2,33.2,30.08,ESE,102,2.0,2.0,96,0.00,,,0.07,Wunderground v.1.15,2013-12-02 22:10:00,
2013-12-02 17:15:00,34.2,33.2,30.08,ESE,106,2.0,2.0,96,0.00,,,0.07,Wunderground v.1.15,2013-12-02 22:15:00,
2013-12-02 17:20:00,34.2,33.2,30.08,East,101,2.0,2.0,96,0.00,,,0.07,Wunderground v.1.15,2013-12-02 22:20:00,
2013-12-02 17:25:00,34.2,33.2,30.09,East,98,1.0,2.0,96,0.00,,,0.07,Wunderground v.1.15,2013-12-02 22:25:00,
2013-12-02 17:30:00,34.3,33.5,30.09,SE,126,1.0,3.0,97,0.00,,,0.07,Wunderground v.1.15,2013-12-02 22:30:00,
2013-12-02 17:35:00,34.3,33.3,30.09,ESE,117,2.0,3.0,96,0.00,,,0.07,Wunderground v.1.15,2013-12-02 22:35:00,
2013-12-02 17:40:00,34.3,33.3,30.09,East,98,2.0,2.0,96,0.00,,,0.07,Wunderground v.1.15,2013-12-02 22:40:00,
2013-12-02 17:45:00,34.3,33.5,30.09,East,84,2.0,2.0,97,0.00,,,0.07,Wunderground v.1.15,2013-12-02 22:45:00,
2013-12-02 17:50:00,34.3,33.5,30.09,East,90,2.0,2.0,97,0.00,,,0.07,Wunderground v.1.15,2013-12-02 22:50:00,
2013-12-02 17:55:00,34.2,33.4,30.09,East,91,2.0,2.0,97,0.00,,,0.07,Wunderground v.1.15,2013-12-02 22:55:00,
2013-12-02 18:00:00,34.2,33.4,30.08,East,91,1.0,1.0,97,0.00,,,0.07,Wunderground v.1.15,2013-12-02 23:00:00,
2013-12-02 18:05:00,34.2,33.4,30.09,East,91,0.0,1.0,97,0.00,,,0.07,Wunderground v.1.15,2013-12-02 23:05:00,
2013-12-02 18:10:00,34.2,33.2,30.09,East,91,0.0,0.0,96,0.00,,,0.07,Wunderground v.1.15,2013-12-02 23:10:00,
2013-12-02 18:15:00,34.1,33.1,30.09,East,91,0.0,0.0,96,0.00,,,0.07,Wunderground v.1.15,2013-12-02 23:15:00,
2013-12-02 18:20:00,34.1,33.1,30.09,East,91,0.0,2.0,96,0.00,,,0.07,Wunderground v.1.15,2013-12-02 23:20:00,
2013-12-02 18:25:00,34.1,33.1,30.09,East,100,1.0,2.0,96,0.00,,,0.07,Wunderground v.1.15,2013-12-02 23:25:00,
2013-12-02 18:35:00,34.2,33.4,30.09,SE,125,1.0,1.0,97,0.00,,,0.08,Wunderground v.1.15,2013-12-02 23:35:00,
2013-12-02 18:40:00,34.2,33.4,30.09,ESE,112,1.0,2.0,97,0.00,,,0.08,Wunderground v.1.15,2013-12-02 23:40:00,
2013-12-02 18:45:00,34.2,33.4,30.09,SE,128,2.0,2.0,97,0.04,,,0.09,Wunderground v.1.15,2013-12-02 23:45:00,
2013-12-02 18:50:00,34.3,33.5,30.09,ESE,121,2.0,2.0,97,0.04,,,0.09,Wunderground v.1.15,2013-12-02 23:50:00,
2013-12-02 18:55:00,34.3,33.5,30.09,ESE,120,1.0,2.0,97,0.04,,,0.09,Wunderground v.1.15,2013-12-02 23:55:00,
2013-12-02 19:00:00,34.2,33.4,30.09,ESE,120,0.0,0.0,97,0.04,,,0.09,Wunderground v.1.15,2013-12-03 00:00:00,
2013-12-02 19:05:00,34.3,33.5,30.09,ESE,120,0.0,0.0,97,0.00,,,0.09,Wunderground v.1.15,2013-12-03 00:05:00,
2013-12-02 19:10:00,34.2,33.4,30.09,ESE,120,0.0,1.0,97,0.00,,,0.09,Wunderground v.1.15,2013-12-03 00:10:00,
2013-12-02 19:15:00,34.3,33.5,30.09,ESE,120,1.0,1.0,97,0.00,,,0.09,Wunderground v.1.15,2013-12-03 00:15:00,
2013-12-02 19:20:00,34.3,33.5,30.09,ESE,120,1.0,1.0,97,0.00,,,0.09,Wunderground v.1.15,2013-12-03 00:20:00,
2013-12-02 19:25:00,34.3,33.5,30.09,ESE,120,0.0,1.0,97,0.00,,,0.09,Wunderground v.1.15,2013-12-03 00:25:00,
2013-12-02 19:30:00,34.3,33.5,30.09,ESE,119,1.0,1.0,97,0.00,,,0.09,Wunderground v.1.15,2013-12-03 00:30:00,
2013-12-02 19:35:00,34.3,33.5,30.08,ESE,121,1.0,1.0,97,0.00,,,0.09,Wunderground v.1.15,2013-12-03 00:35:00,
2013-12-02 19:40:00,34.3,33.5,30.08,ESE,121,1.0,1.0,97,0.00,,,0.09,Wunderground v.1.15,2013-12-03 00:40:00,
2013-12-02 19:45:00,34.3,33.5,30.08,ESE,115,1.0,1.0,97,0.00,,,0.09,Wunderground v.1.15,2013-12-03 00:45:00,
2013-12-02 19:50:00,34.4,33.6,30.08,ESE,103,2.0,2.0,97,0.00,,,0.09,Wunderground v.1.15,2013-12-03 00:50:00,
2013-12-02 19:55:00,34.4,33.6,30.08,ESE,105,2.0,2.0,97,0.00,,,0.09,Wunderground v.1.15,2013-12-03 00:55:00,
2013-12-02 20:00:00,34.5,33.7,30.09,East,98,2.0,3.0,97,0.00,,,0.09,Wunderground v.1.15,2013-12-03 01:00:00,
2013-12-02 20:05:00,34.5,33.7,30.09,SE,130,2.0,3.0,97,0.00,,,0.09,Wunderground v.1.15,2013-12-03 01:05:00,
2013-12-02 20:10:00,34.5,33.7,30.09,East,100,2.0,2.0,97,0.00,,,0.09,Wunderground v.1.15,2013-12-03 01:10:00,
2013-12-02 20:15:00,34.5,33.7,30.09,ESE,110,1.0,2.0,97,0.00,,,0.09,Wunderground v.1.15,2013-12-03 01:15:00,
2013-12-02 20:20:00,34.4,33.6,30.09,ESE,119,1.0,3.0,97,0.00,,,0.09,Wunderground v.1.15,2013-12-03 01:20:00,
2013-12-02 20:25:00,34.4,33.6,30.08,ESE,121,3.0,3.0,97,0.00,,,0.09,Wunderground v.1.15,2013-12-03 01:25:00,
2013-12-02 20:30:00,34.4,33.6,30.08,ESE,118,3.0,3.0,97,0.00,,,0.09,Wunderground v.1.15,2013-12-03 01:30:00,
2013-12-02 20:40:00,34.4,33.6,30.08,ESE,121,1.0,3.0,97,0.00,,,0.09,Wunderground v.1.15,2013-12-03 01:40:00,
2013-12-02 20:45:00,34.4,33.6,30.08,ESE,114,2.0,3.0,97,0.00,,,0.09,Wunderground v.1.15,2013-12-03 01:45:00,
2013-12-02 20:50:00,34.4,33.6,30.08,ESE,121,2.0,2.0,97,0.00,,,0.09,Wunderground v.1.15,2013-12-03 01:50:00,
2013-12-02 20:55:00,34.4,33.6,30.08,ESE,121,1.0,2.0,97,0.00,,,0.09,Wunderground v.1.15,2013-12-03 01:55:00,
2013-12-02 21:00:00,34.4,33.6,30.08,ESE,121,1.0,1.0,97,0.00,,,0.09,Wunderground v.1.15,2013-12-03 02:00:00,
2013-12-02 21:05:00,34.4,33.6,30.08,ESE,121,1.0,1.0,97,0.00,,,0.09,Wunderground v.1.15,2013-12-03 02:05:00,
2013-12-02 21:10:00,34.4,33.6,30.08,ESE,121,1.0,3.0,97,0.00,,,0.09,Wunderground v.1.15,2013-12-03 02:10:00,
2013-12-02 21:15:00,34.4,33.6,30.08,ESE,123,1.0,3.0,97,0.00,,,0.09,Wunderground v.1.15,2013-12-03 02:15:00,
2013-12-02 21:20:00,34.4,33.6,30.08,ESE,123,1.0,1.0,97,0.00,,,0.09,Wunderground v.1.15,2013-12-03 02:20:00,
2013-12-02 21:25:00,34.4,33.6,30.08,ESE,123,1.0,1.0,97,0.00,,,0.09,Wunderground v.1.15,2013-12-03 02:25:00,
2013-12-02 21:35:00,34.4,33.6,30.08,ESE,123,0.0,0.0,97,0.00,,,0.09,Wunderground v.1.15,2013-12-03 02:35:00,
2013-12-02 21:40:00,34.5,33.7,30.08,ESE,123,0.0,0.0,97,0.00,,,0.09,Wunderground v.1.15,2013-12-03 02:40:00,
2013-12-02 21:45:00,34.5,33.7,30.08,ESE,123,0.0,0.0,97,0.00,,,0.09,Wunderground v.1.15,2013-12-03 02:45:00,
2013-12-02 21:50:00,34.5,33.7,30.08,ESE,123,0.0,0.0,97,0.00,,,0.09,Wunderground v.1.15,2013-12-03 02:50:00,
2013-12-02 22:00:00,34.6,33.8,30.08,ESE,122,1.0,1.0,97,0.00,,,0.09,Wunderground v.1.15,2013-12-03 03:00:00,
2013-12-02 22:05:00,34.7,33.9,30.08,ESE,107,1.0,2.0,97,0.00,,,0.09,Wunderground v.1.15,2013-12-03 03:05:00,
2013-12-02 22:10:00,34.7,33.9,30.08,ESE,112,1.0,3.0,97,0.00,,,0.09,Wunderground v.1.15,2013-12-03 03:10:00,
2013-12-02 22:15:00,34.7,33.9,30.08,East,82,2.0,3.0,97,0.00,,,0.09,Wunderground v.1.15,2013-12-03 03:15:00,
2013-12-02 22:20:00,34.7,33.9,30.08,East,82,1.0,1.0,97,0.00,,,0.09,Wunderground v.1.15,2013-12-03 03:20:00,
2013-12-02 22:30:00,34.7,33.9,30.08,ESE,106,0.0,2.0,97,0.00,,,0.09,Wunderground v.1.15,2013-12-03 03:30:00,
2013-12-02 22:35:00,34.7,33.9,30.08,SE,132,1.0,2.0,97,0.00,,,0.09,Wunderground v.1.15,2013-12-03 03:35:00,
2013-12-02 22:40:00,34.7,33.9,30.08,SE,130,1.0,1.0,97,0.00,,,0.09,Wunderground v.1.15,2013-12-03 03:40:00,
2013-12-02 22:45:00,34.8,34.0,30.08,SE,132,1.0,1.0,97,0.00,,,0.09,Wunderground v.1.15,2013-12-03 03:45:00,
2013-12-02 22:50:00,34.8,34.0,30.08,ESE,115,1.0,2.0,97,0.00,,,0.09,Wunderground v.1.15,2013-12-03 03:50:00,
2013-12-02 22:55:00,34.8,34.0,30.08,SE,132,1.0,2.0,97,0.00,,,0.09,Wunderground v.1.15,2013-12-03 03:55:00,
2013-12-02 23:00:00,34.8,34.0,30.08,SE,132,1.0,1.0,97,0.00,,,0.09,Wunderground v.1.15,2013-12-03 04:00:00,
2013-12-02 23:05:00,34.8,34.0,30.08,SE,132,0.0,1.0,97,0.00,,,0.09,Wunderground v.1.15,2013-12-03 04:05:00,
2013-12-02 23:10:00,34.8,34.0,30.08,SE,132,0.0,0.0,97,0.00,,,0.09,Wunderground v.1.15,2013-12-03 04:10:00,
2013-12-02 23:15:00,34.8,34.0,30.08,SE,132,0.0,0.0,97,0.00,,,0.09,Wunderground v.1.15,2013-12-03 04:15:00,
2013-12-02 23:20:00,34.8,34.0,30.07,SE,132,0.0,0.0,97,0.00,,,0.09,Wunderground v.1.15,2013-12-03 04:20:00,
2013-12-02 23:25:00,34.8,34.0,30.07,SE,132,0.0,0.0,97,0.00,,,0.09,Wunderground v.1.15,2013-12-03 04:25:00,
2013-12-02 23:30:00,34.8,34.0,30.07,SE,132,0.0,0.0,97,0.00,,,0.09,Wunderground v.1.15,2013-12-03 04:30:00,
2013-12-02 23:35:00,34.7,33.9,30.07,SE,132,0.0,1.0,97,0.00,,,0.09,Wunderground v.1.15,2013-12-03 04:35:00,
2013-12-02 23:45:00,34.9,34.1,30.07,SE,124,1.0,2.0,97,0.00,,,0.09,Wunderground v.1.15,2013-12-03 04:45:00,
2013-12-02 23:50:00,35.0,34.2,30.06,ESE,123,1.0,1.0,97,0.00,,,0.09,Wunderground v.1.15,2013-12-03 04:50:00,
2013-12-02 23:55:00,35.0,34.2,30.06,ESE,121,1.0,1.0,97,0.00,,,0.09,Wunderground v.1.15,2013-12-03 04:55:00,